Flag for Canada Weather past 2 weeks in Cranbrook, British Columbia, Canada

Now
32 °F

Passing clouds.


Feels Like: 26 °F
Forecast: 35 / 52 °F
Wind: 6 mph from Southwest

Location: Cranbrook


UV Index: 3 (Moderate)

Visibility: 25 mi


Pressure: 29.95 "Hg

Humidity: 80%

Dew point: 27 °F

Location of CranbrookLocation

Historic Weather in Cranbrook

°F

Cranbrook temperature yesterday

Maximum temperature yesterday: 54 °F (at 7:00 PM)
Minimum temperature yesterday: 34 °F (at 5:00 AM)
Average temperature yesterday: 43 °F

Past Weeks' High & Low Weather Summary

 TemperatureHumidityPressure
High68 °F (Apr 8, 2:00 PM)93% (Apr 5, 8:00 AM)30.44 "Hg (Apr 5, 8:00 AM)
Low23 °F (Apr 14, 6:00 AM)20% (Apr 14, 5:00 PM)29.68 "Hg (Apr 9, 2:00 AM)
Average43 °F52%29.98 "Hg
* Reported Midnight between Mar 31 and Apr 1 — Midnight between Apr 15 and Apr 16, Cranbrook, Weather by CustomWeather, © 2014

Note: Actual official high and low records may vary slightly from our data, if they occured in-between our weather recording intervals... More about our weather records

Advertising

Historic Weather Conditions — Data for Previous 24 hours

 ConditionsComfort  
Time TempWeatherWind HumidityBarometerVisibility
12:00 AM
Apr 16
34 °FPassing clouds.5 mph81%29.94 "Hg25 mi
11:00 PM
Apr 15
37 °FPassing clouds.2 mph75%29.93 "Hg25 mi
10:00 PM37 °FPassing clouds.3 mph75%29.91 "Hg25 mi
9:00 PM43 °FScattered clouds.5 mph66%29.88 "Hg25 mi
8:00 PM46 °FScattered clouds.7 mph62%29.86 "Hg25 mi
7:00 PM54 °FPartly sunny.5 mph28%29.83 "Hg25 mi
6:00 PM52 °FScattered clouds.No wind41%29.82 "Hg25 mi
5:00 PM50 °FScattered clouds.5 mph54%29.83 "Hg25 mi
4:00 PM46 °FBroken clouds.5 mph62%29.85 "Hg25 mi
3:00 PM48 °FScattered showers. Partly sunny.5 mph46%29.83 "Hg20 mi
2:00 PM46 °FSprinkles. Partly sunny.6 mph53%29.83 "Hg20 mi
1:00 PM50 °FScattered showers. Mostly cloudy.7 mph43%29.82 "Hg20 mi
12:00 PM46 °FMostly cloudy.8 mph43%29.81 "Hg20 mi
11:00 AM43 °FMostly cloudy.6 mph49%29.80 "Hg25 mi
10:00 AM41 °FMore clouds than sun.8 mph57%29.78 "Hg25 mi
9:00 AM43 °FMostly cloudy.No wind53%29.77 "Hg25 mi
8:00 AM37 °FMostly cloudy.No wind60%29.77 "Hg25 mi
7:00 AM36 °FMostly cloudy.No wind56%29.76 "Hg25 mi
6:00 AM37 °FPassing clouds.No wind56%29.77 "Hg25 mi
5:00 AM34 °FPartly cloudy.2 mph56%29.78 "Hg25 mi
4:00 AM37 °FPartly cloudy.No wind52%29.79 "Hg25 mi
3:00 AM41 °FPassing clouds.7 mph45%29.81 "Hg25 mi
2:00 AM41 °FPassing clouds.6 mph45%29.83 "Hg25 mi
1:00 AM45 °FPassing clouds.5 mph37%29.86 "Hg25 mi
Weather by CustomWeather, © 2014

See weather overview